Погода в Мантурово

Россия / Курская область     51°27′11″N   37°07′38″E
темп.,
°C
ветер,
м/с
пор.,
м/с
влажн.,
%
обл.,
%
осадки,
мм/ч
давл.,
гПа
погр.,
м
28 ноября, вс
вс2800:00+4ю41098100 0.1 1005246
03:00+5ю4899100 0.1 1005213
06:00+5ююз369995 0.0 1006160
09:00+4ююз369984 0.0 1007150
12:00+6ююз459099 0.0 1009341
15:00+6ююз2388100 0.0 1009401
18:00+6ююв3588100 0.0 1010253
21:00+6юв4887100 0.0 1009321
29 ноября, пн
пн2900:00+5юв41193100 0.0 1009277
03:00+5вюв41097100 0.0 1007240
06:00+5в3499100 0.1 1004102
09:00+5вюв3799100 0.8 1003284
12:00+7ю41198100 0.0 1001356
15:00+9ююв61293100 0.1 998639
18:00+9юв81797100 3.4 993915
21:00+11ю112088100 13.1 9861175
30 ноября, вт
вт3000:00+11ю111984100 1.4 9811276
03:00+10юз142275100 3.9 9811567
06:00+4юз132283100 0.1 9861252
09:00+3юз142381100 0.3 9881415
12:00+3зюз132269100 0.3 9911282
15:00+3зюз121864100 0.3 9931275
18:00+2зюз91567100 0.0 9951329
21:00+1зюз9157316 0.0 9951106
1 декабря, ср
ср100:00−1з71380100 0.0 995813
03:00−1з61072100 0.0 996863
06:00−1з71068100 0.0 9961061
09:00−2з5975100 0.1 9971117
12:00−1зюз6968100 0.1 9981139
15:00−1юз4891100 0.3 997606
18:00−1юз389576 0.5 998479
21:00−1з588998 0.6 1000476
2 декабря, чт
чт200:00−2з588598 0.0 1002617
03:00−3зюз598672 0.0 1004443
06:00−1юз5107398 0.0 1004810
09:00−1ююз6139489 0.1 1004554
12:00+1юз81697100 0.9 1003727
15:00+3юз8168170 1.1 1003720
18:00+2юз61488100 0.0 1005444
21:00+2юз61487100 0.0 1005437